Greer, SC

5:44 AM EST on February 22, 2017 (GMT -0500)
Greenville-Spartanburg International

Weather History for KGSP - March, 2012

Change the Weather History Date:

Saturday, March 31, 2012

  Actual Average Record
Temperature  
Mean Temperature 66 °F 57 °F  
Max Temperature 77 °F 69 °F 86 °F (1986)
Min Temperature 55 °F 45 °F 24 °F (1964)
Degree Days  
Heating Degree Days 0 9  
Month to date heating degree days 135 384  
Since 1 July heating degree days 2260 2833  
Cooling Degree Days 1 0  
Month to date cooling degree days 66 8  
Year to date cooling degree days 66 8  
Growing Degree Days 16 (Base 50)    
Moisture  
Dew Point 59 °F    
Average Humidity 72    
Maximum Humidity 93    
Minimum Humidity 50    
Precipitation  
Precipitation 0.48 in 0.14 in 2.27 in (1962)
Month to date precipitation 3.51 4.52  
Year to date precipitation 8.61 12.31  
Snow  
Snow T in 0.00 in 1.00 in (1915)
Month to date snowfall T 0.9  
Since 1 July snowfall T 4.7  
Snow Depth 0.00 in    
Sea Level Pressure  
Sea Level Pressure 29.80 in    
Wind  
Wind Speed 5 mph (SW)    
Max Wind Speed 23 mph    
Max Gust Speed 32 mph    
Visibility 8 miles    
Events Rain , Thunderstorm    
T = Trace of Precipitation, MM = Missing Value Source: NWS Daily Summary

Daily Weather History Graph

Daily Weather History Graph

Search for Another Location

Airport or City:

Trip Planner

Search our weather history database for the weather conditions in past years. The results will help you decide how hot, cold, wet, or windy it might be!

Date:

Astronomy

Mar. 31, 2012 Rise Set
Actual Time 7:16 AM EDT 7:49 PM EDT
Civil Twilight 6:51 AM EDT 8:15 PM EDT
Nautical Twilight 6:21 AM EDT 8:45 PM EDT
Astronomical Twilight 5:50 AM EDT 9:15 PM EDT
Moon 1:30 PM EDT (3/31) 2:57 AM EDT (3/31)
Length of Visible Light 13h 24m
Length of Day
12h 33m
First Quarter, 59% of the Moon is Illuminated
Mar 31
First Quarter
Apr 6
Full
Apr 13
Last Quarter
Apr 21
New
Apr 29
First Quarter

Hourly Weather History & Observations

Time (EDT) Temp. Dew Point Humidity Pressure Visibility Wind Dir Wind Speed Gust Speed Precip Events Conditions
12:53 AM 62.1 °F 60.1 °F 93% 29.87 in 10.0 mi SSW 6.9 mph - 0.00 in   Mostly Cloudy
1:14 AM 62.6 °F 60.8 °F 94% 29.89 in 10.0 mi SSW 8.1 mph - 0.00 in Rain Light Rain
1:41 AM 62.6 °F 60.8 °F 94% 29.88 in 10.0 mi SW 6.9 mph - 0.00 in Rain Light Rain
1:53 AM 63.0 °F 61.0 °F 93% 29.86 in 10.0 mi SW 5.8 mph - 0.01 in Rain Light Rain
2:37 AM 62.6 °F 60.8 °F 94% 29.87 in 10.0 mi SW 5.8 mph - 0.00 in   Overcast
2:53 AM 62.1 °F 61.0 °F 96% 29.83 in 10.0 mi SW 5.8 mph - 0.00 in   Overcast
3:53 AM 62.1 °F 61.0 °F 96% 29.81 in 5.0 mi SSW 6.9 mph - 0.01 in Rain Rain
4:05 AM 62.6 °F 60.8 °F 94% 29.83 in 3.0 mi SSW 8.1 mph - 0.04 in Rain Rain
4:25 AM 62.6 °F 60.8 °F 94% 29.83 in 7.0 mi SSW 5.8 mph - 0.05 in Rain Light Rain
4:53 AM 62.1 °F 61.0 °F 96% 29.80 in 6.0 mi SSW 5.8 mph - 0.07 in Rain Light Rain
5:53 AM 62.1 °F 61.0 °F 96% 29.79 in 7.0 mi SSW 5.8 mph - 0.02 in Rain Light Rain
6:53 AM 62.1 °F 61.0 °F 96% 29.80 in 6.0 mi SW 4.6 mph - 0.07 in Rain Light Rain
7:53 AM 63.0 °F 61.0 °F 93% 29.81 in 10.0 mi Calm Calm - 0.00 in   Overcast
8:27 AM 62.6 °F 62.6 °F 100% 29.84 in 9.0 mi WSW 4.6 mph - N/A   Mostly Cloudy
8:53 AM 64.0 °F 61.0 °F 90% 29.82 in 10.0 mi West 4.6 mph - N/A   Partly Cloudy
9:26 AM 64.4 °F 62.6 °F 94% 29.84 in 10.0 mi WSW 5.8 mph - N/A   Mostly Cloudy
9:53 AM 66.0 °F 62.1 °F 87% 29.83 in 10.0 mi West 6.9 mph - N/A   Scattered Clouds
10:53 AM 69.1 °F 61.0 °F 75% 29.83 in 10.0 mi Variable 3.5 mph - N/A   Scattered Clouds
11:53 AM 72.0 °F 59.0 °F 64% 29.82 in 10.0 mi Variable 4.6 mph - N/A   Clear
12:53 PM 73.9 °F 55.9 °F 53% 29.82 in 10.0 mi West 5.8 mph - N/A   Clear
1:53 PM 73.9 °F 55.9 °F 53% 29.80 in 10.0 mi West 5.8 mph - N/A   Partly Cloudy
2:53 PM 75.0 °F 57.0 °F 53% 29.78 in 10.0 mi WSW 4.6 mph - N/A   Clear
3:53 PM 75.9 °F 55.9 °F 50% 29.75 in 10.0 mi SW 3.5 mph - N/A   Partly Cloudy
4:53 PM 75.9 °F 55.9 °F 50% 29.73 in 10.0 mi SW 5.8 mph - N/A   Clear
5:36 PM 73.4 °F 57.2 °F 57% 29.76 in 10.0 mi South 8.1 mph - 0.00 in Rain , Thunderstorm Light Rain
5:53 PM 66.0 °F 61.0 °F 84% 29.75 in 1.2 mi SW 5.8 mph - 0.08 in Rain , Thunderstorm Heavy Thunderstorms and Rain
6:00 PM 64.4 °F 57.2 °F 77% 29.77 in 1.5 mi SSW 18.4 mph 26.5 mph 0.09 in Rain Rain
6:02 PM 66.2 °F 55.4 °F 68% 29.77 in 7.0 mi South 17.3 mph 27.6 mph 0.09 in Rain , Thunderstorm Light Thunderstorms and Rain
6:16 PM 60.8 °F 57.2 °F 88% 29.78 in 7.0 mi South 10.4 mph - 0.10 in Rain Light Rain
6:18 PM 62.6 °F 57.2 °F 82% 29.78 in 7.0 mi SSW 12.7 mph - 0.10 in Rain Light Rain
6:19 PM 62.6 °F 57.2 °F 82% 29.78 in 7.0 mi South 12.7 mph - 0.10 in Rain Light Rain
6:28 PM 60.8 °F 57.2 °F 88% 29.76 in 7.0 mi Variable 6.9 mph - 0.11 in Rain Light Rain
6:36 PM 62.6 °F 57.2 °F 82% 29.79 in 4.0 mi West 17.3 mph 32.2 mph 0.13 in Rain , Thunderstorm Thunderstorms and Rain
6:43 PM 62.6 °F 57.2 °F 82% 29.80 in 4.0 mi SW 15.0 mph 32.2 mph 0.19 in Rain , Thunderstorm Thunderstorms and Rain
6:50 PM 60.8 °F 59.0 °F 94% 29.80 in 4.0 mi WSW 9.2 mph 19.6 mph 0.22 in Rain , Thunderstorm Thunderstorms and Rain
6:53 PM 61.0 °F 59.0 °F 93% 29.78 in 4.0 mi SW 8.1 mph - 0.22 in Rain , Thunderstorm Thunderstorms and Rain
6:59 PM 62.6 °F 57.2 °F 82% 29.79 in 10.0 mi SW 8.1 mph - N/A Rain Light Rain
7:11 PM 62.6 °F 60.8 °F 94% 29.81 in 10.0 mi WSW 15.0 mph 23.0 mph N/A Rain , Thunderstorm Light Rain
7:40 PM 62.6 °F 57.2 °F 82% 29.79 in 10.0 mi West 5.8 mph - N/A   Clear
7:53 PM 60.1 °F 57.0 °F 90% 29.77 in 10.0 mi WSW 5.8 mph - N/A   Clear
8:53 PM 57.9 °F 55.9 °F 93% 29.78 in 10.0 mi West 5.8 mph - N/A   Clear
9:53 PM 57.0 °F 55.9 °F 96% 29.80 in 5.0 mi West 4.6 mph - N/A   Clear
10:53 PM 57.0 °F 55.0 °F 93% 29.81 in 10.0 mi West 4.6 mph - N/A   Clear
11:53 PM 57.0 °F 54.0 °F 89% 29.81 in 10.0 mi Calm Calm - N/A   Clear